CZ-6A DEB, 56259

Orbit data source: Space-Track

CZ-6A DEB, 56259 is space debris in SSO originally from a launch on Fri, 11 Nov 2022 UTC launched from the Taiyaun Space Center, China (TSC). Debris objects in space refer to the collection of defunct objects orbiting the Earth. Examples of debris include non-operational satellites, rocket bodies, and fragments generated from explosions, collisions, or faulty payload assembly.

Loading next visibility...
Identifier
56259, 2022-151ACB
Orbit
SSO
Country
Flag of CNCN / PRC
Related business
Manufacturer
SAST
Mission
Spacecraft
Bus & Motor
Unknown
Mass
Unknown
Launch date (UTC)
2022-11-11 (4 years ago)
Launch vehicle
Unknown
Launch site
Taiyaun Space Center, China (TSC)
Object type
Payload
Rocket body
Debris
Shape & HBR
Unknown shape, 0.1 m
Radar Cross Section
Small (<0.1 m²)

Expand to show TLE details & history
Last TLE update: 1 week ago

TLE from 1 week ago
0 CZ-6A DEB
1 56259U 22151ACB 26166.71936944  .00002101  00000-0  10453-2 0  9991
2 56259  98.8259 170.0526 0047145 340.8539  19.0862 14.17533897172895
Epoch: 2026-06-15T17:15Z
TLE epoch observation values (Epoch: 2026-06-15T17:15:53.519Z)
Latitude
-0.00007°
Longitude
7.0779°
Altitude
804.492 km
Speed
7.468 km/s
True Right ascension
11h 20m 12s
True Declination
0° 00' 00"
Sunlit
Object was in daylight at epoch
Visualization orbit readout
Latitude
Unknown
Longitude
Unknown
Altitude
Unknown
Speed
Unknown
Apparent Right ascension
Unknown
Apparent Declination
Unknown
Sunlit
N/A
Visualization observer readout
Local Sidereal Time
23:19:43
Azimuth
Unknown
Elevation
Unknown
Doppler factor
Unknown
Orbital elements
Apogee altitude
864.859 km
Perigee altitude
796.886 km
Semi-major axis
7,209.009 km
Eccentricity
0.00471
Inclination
98.8259°
RAAN
170.0526°
Arg. of periapsis
340.8539°
True anomaly
19.26384°
Mean anomaly
19.0862°
Eccentric anomaly
19.17492°
Mean motion
3.54593 °/min
Orbital period
101.52 mins
BSTAR
0.0010453
Loading maneuver chart data...
Computing Atmospheric mass density...
Loading historical data...
Loading historical data...
Loading historical data...
Loading historical data...
Loading historical data...
Loading historical data...
Loading historical data...

Documentation

Showing up to 5 results
|